Regional Weather Roundup
Issued by NWS

Home | Current Version | Previous Version | Graphics & Text | Print | Product List | Glossary On
Versions: 1 2 3 4 5 6 7 8 9 10 11 12 13 14 15 16 17 18 19 20 21 22 23 24 25 26 27 28 29 30 31 32 33 34 35 36 37 38 39 40 41 42 43 44 45 46 47 48 49 50
000
ASUS43 KOAX 290902
RWRNE

WEATHER ROUNDUP FOR NEBRASKA
NATIONAL WEATHER SERVICE OMAHA NE
400 AM CDT SUN MAR 29 2015

NOTES: SATELLITE DATA IS BEING USED TO AUGMENT CLOUD COVER ABOVE
       12000 FEET.
       "FAIR" INDICATES FEW OR NO CLOUDS BELOW 12,000 FEET WITH NO
       SIGNIFICANT WEATHER AND/OR OBSTRUCTIONS TO VISIBILITY.

  * THESE STATIONS DO NOT REPORT WEATHER SUCH AS RAIN...SNOW OR FOG.

NEZ001>004-019>022-054>056-291000-
NEBRASKA PANHANDLE

CITY           SKY/WX    TMP DP  RH WIND       PRES   REMARKS
SCOTTSBLUFF    CLEAR     44  18  35 NW3       30.07R
ALLIANCE       CLEAR     46  18  32 NW13      30.02R
CHADRON        CLEAR     50  20  30 W22G33    30.01R
KIMBALL        CLEAR     42  21  42 NW5       30.08R
SIDNEY         CLEAR     46  23  40 NW13      30.07R
$$

NEZ057>060-069>072-079>082-291000-
SOUTHWEST NEBRASKA

CITY           SKY/WX    TMP DP  RH WIND       PRES   REMARKS
NORTH PLATTE   MOCLDY    54  32  43 NW7       29.95R
IMPERIAL       MOCLDY    56  33  42 N18       30.00R
MCCOOK         MOCLDY    64  38  38 N28G36    29.87R
$$

NEZ005>010-023>029-035>040-094-291000-
NORTH CENTRAL NEBRASKA

CITY           SKY/WX    TMP DP  RH WIND       PRES   REMARKS
VALENTINE      CLEAR     44  33  65 W8        29.88R
AINSWORTH      CLEAR     49  34  56 NW8       29.87S
BROKEN BOW     MOCLDY    54  37  52 N15       29.89R
ORD            PTCLDY    40  32  73 NW10      29.85R WCI  33
$$

NEZ041-046>049-061>064-073>077-083>087-291000-
SOUTH CENTRAL NEBRASKA

CITY           SKY/WX    TMP DP  RH WIND       PRES   REMARKS
GRAND ISLAND   PTCLDY    49  38  65 NW9       29.85R
AURORA         MOCLDY    47  39  73 W9        29.83R
HASTINGS       PTCLDY    49  39  68 S10       29.80F
HEBRON         MOCLDY    46  38  74 SW5       29.88R
KEARNEY *      PTCLDY    50  37  62 W7        29.84R
$$

NEZ011>018-030>034-042>045-291000-
NORTHEAST NEBRASKA

CITY           SKY/WX    TMP DP  RH WIND       PRES   REMARKS
NORFOLK        MOCLDY    44  36  73 SW8       29.83F
ALBION         CLEAR     38  32  79 CALM      29.84F
BLAIR          CLOUDY    44  33  67 S14G28    29.82F
COLUMBUS *     MOCLDY    43  32  65 NW7       29.90R
FREMONT        CLOUDY    44  34  69 W7        29.88R
TEKAMAH        CLOUDY    45  33  63 S12       29.85F
$$

NEZ050>053-065>068-078-088>093-291000-
SOUTHEAST NEBRASKA

CITY           SKY/WX    TMP DP  RH WIND       PRES   REMARKS
LINCOLN        MOCLDY    44  35  70 S14       29.83F
OMAHA EPPLEY   CLOUDY    43  32  65 S25G31    29.83F
BEATRICE       CLOUDY    44  36  73 S13G24    29.83F
FALLS CITY     MOCLDY    40  33  76 S18       29.88F WCI  31
NEBRASKA CITY  MOCLDY    41  32  71 S13G24    29.86F
$$

NEZ044-045-051>053-067-291000-
OMAHA AREA

CITY           SKY/WX    TMP DP  RH WIND       PRES   REMARKS
OMAHA EPPLEY   CLOUDY    43  32  65 S25G31    29.83F
BLAIR          CLOUDY    44  33  67 S14G28    29.82F
FREMONT        CLOUDY    44  34  69 W7        29.88R
OFFUTT AFB     MOCLDY    42  33  69 SE21      29.83F
WAHOO          FAIR      43  33  69 S12       29.82S
$$



USA.gov is the U.S. government's official web portal to all federal, state and local government web resources and services.